Aydabol

Kazakhstan     52˚41′28″N   68˚59′13″E
temp.,
°C
wind,
m/s
gust,
m/s
humid.,
%
clouds,
%
prec.,
mm/h
press.,
hPa
HPBL,
m
28 november, sat
sat2823:00−11˚se239752 0.0 103027
02:00−9˚ese2396100 0.0 103075
05:00−10˚ene2396100 0.3 102981
08:00−10˚ne3696100 0.0 1030158
11:00−9˚nne4695100 0.0 1031212
14:00−11˚nne5791100 0.0 1033234
17:00−13˚nne5994100 0.0 1034244
20:00−14˚nne51096100 0.0 1037270
29 november, sun
sun2923:00−14˚n61097100 0.0 1038275
02:00−14˚n61197100 0.0 1040279
05:00−15˚n51097100 0.1 1043261
08:00−15˚nnw61099100 0.0 1044248
11:00−14˚nnw6996100 0.1 1046260
14:00−13˚nnw5995100 0.0 1046273
17:00−15˚nnw4998100 0.1 1048232
20:00−16˚nnw3799100 0.0 1049191
30 november, mon
mon3023:00−17˚nnw3599100 0.1 1050119
02:00−18˚nnw34100100 0.0 105082
05:00−19˚n349996 0.0 105161
08:00−19˚n339955 0.0 105142
11:00−16˚nne129343 0.0 1052117
14:00−14˚nne229016 0.0 1052166
17:00−18˚ne22978 0.0 105320
20:00−19˚e22940 0.0 105320
1 december, tue
tue123:00−18˚e22940 0.0 105320
02:00−18˚e22950 0.0 105320
05:00−18˚e23940 0.0 105322
08:00−18˚e33960 0.0 105333
11:00−14˚ese35941 0.0 1053177
14:00−13˚ese35890 0.0 1051167
17:00−15˚e34890 0.0 105160
20:00−14˚ese47930 0.0 1051104
2 december, wed
wed223:00−14˚ese48940 0.0 1050139
02:00−14˚ese48920 0.0 1050122
05:00−14˚e47900 0.0 1049119
08:00−14˚e48900 0.0 1048123
11:00−12˚e59860 0.0 1047247
14:00−10˚e59840 0.0 1045255
17:00−14˚e510890 0.0 1043184
20:00−15˚ese5128973 0.0 1042218